EW5759 Weather Reports


time (UTC)temp
C
wind
direction
speed
KPH
gust
KPH
rain 1hr
cm
rain 24hr
cm
rain mn
cm
humidity
%
barometer
mb
20260504050530 6 0 0.0 0.0 0.00 0.00 0.00 65 1014.9
20260504045530 6 0 0.0 3.2 0.00 0.00 0.00 62 1014.7
20260504045029 7 0 1.6 4.8 0.00 0.00 0.00 60 1014.8
20260504044549 7 103 3.2 4.8 0.00 0.00 0.00 58 1014.9
20260504044032 7 103 1.6 4.8 0.00 0.00 0.00 60 1014.9
20260504043531 6 0 0.0 0.0 0.00 0.00 0.00 60 1014.9
20260504043051 6 0 0.0 0.0 0.00 0.00 0.00 62 1014.9
20260504042530 6 0 0.0 0.0 0.00 0.00 0.00 62 1014.8
20260504042030 6 0 0.0 0.0 0.00 0.00 0.00 62 1014.8
20260504041545 7 0 0.0 0.0 0.00 0.00 0.00 61 1014.9
20260504041029 7 0 0.0 0.0 0.00 0.00 0.00 59 1014.9
20260504040530 7 0 0.0 4.8 0.00 0.00 0.00 58 1014.9
20260504040044 8 0 3.2 4.8 0.00 0.00 0.00 57 1014.9
20260504035530 8 91 1.6 3.2 0.00 0.00 0.00 53 1015.0
20260504035030 8 105 3.2 4.8 0.00 0.00 0.00 54 1014.9
20260504034540 8 101 1.6 4.8 0.00 0.00 0.00 55 1015.0
20260504034033 8 113 1.6 4.8 0.00 0.00 0.00 54 1014.9
20260504033530 8 119 3.2 6.4 0.00 0.00 0.00 54 1014.9
20260504033054 8 126 1.6 6.4 0.00 0.00 0.00 55 1014.9
20260504032530 8 133 4.8 6.4 0.00 0.00 0.00 55 1014.9
20260504032033 8 115 1.6 4.8 0.00 0.00 0.00 56 1014.9
20260504031551 7 120 3.2 4.8 0.00 0.00 0.00 56 1014.9
20260504031032 7 147 3.2 3.2 0.00 0.00 0.00 56 1014.9
20260504030530 8 0 0.0 0.0 0.00 0.00 0.00 56 1014.9
20260504030045 8 0 0.0 0.0 0.00 0.00 0.00 55 1014.9
20260504025530 8 0 0.0 0.0 0.00 0.00 0.00 53 1014.7
20260504025029 8 0 0.0 0.0 0.00 0.00 0.00 52 1014.6
20260504024541 8 0 0.0 0.0 0.00 0.00 0.00 51 1014.5
20260504024032 8 0 0.0 0.0 0.00 0.00 0.00 51 1014.5
20260504023530 8 0 0.0 0.0 0.00 0.00 0.00 52 1014.5
20260504023041 8 0 0.0 0.0 0.00 0.00 0.00 53 1014.5
20260504022531 8 0 0.0 0.0 0.00 0.00 0.00 53 1014.4
20260504022030 8 0 0.0 0.0 0.00 0.00 0.00 52 1014.4
20260504021557 8 0 0.0 1.6 0.00 0.00 0.00 52 1014.4
20260504021029 9 0 0.0 1.6 0.00 0.00 0.00 51 1014.3
20260504020531 9 0 0.0 1.6 0.00 0.00 0.00 50 1014.4
20260504020046 8 127 0.0 0.0 0.00 0.00 0.00 51 1014.3
20260504015530 8 0 0.0 0.0 0.00 0.00 0.00 52 1014.3
20260504015036 8 0 0.0 0.0 0.00 0.00 0.00 52 1014.2
20260504014554 8 0 0.0 0.0 0.00 0.00 0.00 52 1014.2
20260504014032 8 0 0.0 0.0 0.00 0.00 0.00 52 1014.2
20260504013533 8 0 0.0 0.0 0.00 0.00 0.00 52 1014.2
20260504013043 8 0 0.0 0.0 0.00 0.00 0.00 52 1014.1
20260504012532 8 0 0.0 0.0 0.00 0.00 0.00 51 1014.1
20260504012030 8 0 0.0 0.0 0.00 0.00 0.00 51 1014.2
20260504011541 8 0 0.0 0.0 0.00 0.00 0.00 50 1014.0
20260504011030 8 0 0.0 0.0 0.00 0.00 0.00 51 1013.9
20260504010530 9 0 0.0 0.0 0.00 0.00 0.00 50 1014.0
20260504010057 9 0 0.0 0.0 0.00 0.00 0.00 50 1014.0
20260504005533 10 0 0.0 0.0 0.00 0.00 0.00 47 1014.1
20260504005033 10 0 0.0 0.0 0.00 0.00 0.00 46 1014.0
20260504004543 10 0 0.0 0.0 0.00 0.00 0.00 45 1014.0
20260504004029 11 0 0.0 0.0 0.00 0.00 0.00 45 1014.0
20260504003530 11 0 0.0 0.0 0.00 0.00 0.00 44 1013.9
20260504003044 11 0 0.0 0.0 0.00 0.00 0.00 44 1013.8
20260504002529 11 0 0.0 0.0 0.00 0.00 0.00 44 1013.8
20260504002029 12 0 0.0 0.0 0.00 0.00 0.00 44 1013.8
20260504001548 12 0 0.0 0.0 0.00 0.00 0.00 42 1013.8
20260504001029 12 0 0.0 4.8 0.00 0.00 0.00 40 1013.7
20260504000529 12 0 0.0 4.8 0.00 0.00 0.00 40 1013.7
20260504000045 13 0 1.6 4.8 0.00 0.00 0.00 40 1013.6
20260503235530 13 295 0.0 8.0 0.00 0.00 0.00 39 1013.6
20260503235031 13 296 3.2 8.0 0.00 0.00 0.00 39 1013.7
20260503234548 13 283 3.2 8.0 0.00 0.00 0.00 39 1013.7
20260503234030 13 284 6.4 8.0 0.00 0.00 0.00 38 1013.6
20260503233529 14 295 4.8 9.7 0.00 0.00 0.00 37 1013.6
20260503233053 14 283 3.2 11.3 0.00 0.00 0.00 36 1013.6
20260503232529 14 279 6.4 12.9 0.00 0.00 0.00 36 1013.6
20260503232030 14 291 6.4 16.1 0.00 0.00 0.00 36 1013.6
20260503231548 14 293 9.7 16.1 0.00 0.00 0.00 36 1013.4
20260503231031 15 298 6.4 14.5 0.00 0.00 0.00 35 1013.5
20260503230533 15 304 4.8 17.7 0.00 0.00 0.00 37 1013.3
20260503230045 15 297 9.7 22.5 0.00 0.00 0.00 36 1013.3
20260503225530 15 288 9.7 22.5 0.00 0.00 0.00 35 1013.3
20260503225030 15 305 9.7 19.3 0.00 0.00 0.00 36 1013.3
20260503224543 15 322 6.4 14.5 0.00 0.00 0.00 35 1013.3
20260503224032 15 288 6.4 19.3 0.00 0.00 0.00 35 1013.3
20260503223529 15 276 8.0 27.4 0.00 0.00 0.00 34 1013.3
20260503223041 15 260 9.7 27.4 0.00 0.00 0.00 34 1013.4
20260503222529 15 232 14.5 27.4 0.00 0.00 0.00 34 1013.4
20260503222030 15 304 11.3 24.1 0.00 0.00 0.00 34 1013.5
20260503221556 15 240 6.4 20.9 0.00 0.00 0.00 34 1013.4
20260503221030 15 312 6.4 20.9 0.00 0.00 0.00 38 1013.5
20260503220530 15 269 11.3 20.9 0.00 0.00 0.00 34 1013.5
20260503220057 15 293 12.9 27.4 0.00 0.00 0.00 36 1013.5
20260503215531 15 245 11.3 27.4 0.00 0.00 0.00 34 1013.5
20260503215030 15 241 8.0 20.9 0.00 0.00 0.00 35 1013.5
20260503214540 15 314 9.7 16.1 0.00 0.00 0.00 38 1013.5
20260503214034 15 311 4.8 20.9 0.00 0.00 0.00 36 1013.5
20260503213529 15 299 9.7 25.7 0.00 0.00 0.00 37 1013.4
20260503213043 15 297 8.0 25.7 0.00 0.00 0.00 38 1013.5
20260503212531 15 295 17.7 25.7 0.00 0.00 0.00 35 1013.5
20260503212029 15 327 9.7 22.5 0.00 0.00 0.00 38 1013.5
20260503211542 15 291 9.7 27.4 0.00 0.00 0.00 38 1013.5
20260503211030 15 303 16.1 27.4 0.00 0.00 0.00 35 1013.4
20260503210531 15 298 4.8 20.9 0.00 0.00 0.00 39 1013.4
20260503210049 14 266 9.7 20.9 0.00 0.00 0.00 37 1013.4
20260503205533 14 241 9.7 22.5 0.00 0.00 0.00 36 1013.6
20260503205033 15 283 11.3 22.5 0.00 0.00 0.00 38 1013.5
20260503204558 15 254 11.3 20.9 0.00 0.00 0.00 36 1013.5
20260503204030 15 291 6.4 20.9 0.00 0.00 0.00 37 1013.5
20260503203529 15 300 9.7 24.1 0.00 0.00 0.00 36 1013.5
20260503203042 15 298 14.5 29.0 0.00 0.00 0.00 37 1013.6
20260503202529 15 309 16.1 29.0 0.00 0.00 0.00 39 1013.5
20260503202030 14 295 8.0 22.5 0.00 0.00 0.00 41 1013.6
20260503201541 14 293 12.9 22.5 0.00 0.00 0.00 38 1013.5
20260503201030 14 299 12.9 27.4 0.00 0.00 0.00 38 1013.6
20260503200530 14 279 14.5 27.4 0.00 0.00 0.00 36 1013.8
20260503200045 14 306 14.5 25.7 0.00 0.00 0.00 39 1013.7
20260503195530 13 263 12.9 25.7 0.00 0.00 0.00 36 1013.8
20260503195032 13 328 9.7 22.5 0.00 0.00 0.00 37 1013.8
20260503194601 13 316 9.7 22.5 0.00 0.00 0.00 39 1014.0
20260503194030 14 350 9.7 25.7 0.00 0.00 0.00 40 1013.9
20260503193532 14 295 12.9 27.4 0.00 0.00 0.00 40 1014.1
20260503193044 14 316 16.1 27.4 0.00 0.00 0.00 37 1014.1
20260503192531 14 266 9.7 20.9 0.00 0.00 0.00 37 1014.2
20260503192031 14 287 8.0 20.9 0.00 0.00 0.00 39 1014.2
20260503191544 14 283 12.9 19.3 0.00 0.00 0.00 41 1014.4
20260503191031 13 204 6.4 25.7 0.00 0.00 0.00 41 1014.4
20260503190531 13 314 12.9 25.7 0.00 0.00 0.00 37 1014.5
20260503190058 13 288 12.9 25.7 0.00 0.00 0.00 37 1014.4
20260503185532 13 290 9.7 22.5 0.00 0.00 0.00 45 1014.4
20260503185030 13 303 9.7 22.5 0.00 0.00 0.00 38 1014.4
20260503184551 13 319 11.3 22.5 0.00 0.00 0.00 37 1014.5
20260503184030 13 330 8.0 24.1 0.00 0.00 0.00 36 1014.8
20260503183532 13 337 9.7 24.1 0.00 0.00 0.00 38 1014.8
20260503183052 13 311 12.9 32.2 0.00 0.00 0.00 37 1014.8
20260503182531 13 337 16.1 32.2 0.00 0.00 0.00 34 1014.7
20260503182031 13 282 17.7 32.2 0.00 0.00 0.00 37 1015.1
20260503181546 13 336 11.3 20.9 0.00 0.00 0.00 40 1014.9
20260503181032 13 297 9.7 24.1 0.00 0.00 0.00 36 1014.9
20260503180530 12 300 16.1 24.1 0.00 0.00 0.00 36 1015.0
20260503180056 12 304 9.7 16.1 0.00 0.00 0.00 39 1014.9
20260503175532 12 323 9.7 25.7 0.00 0.00 0.00 36 1015.1
20260503175031 12 327 16.1 29.0 0.00 0.00 0.00 35 1015.2
20260503174552 12 305 14.5 35.4 0.00 0.00 0.00 39 1015.2
20260503174034 12 296 11.3 35.4 0.00 0.00 0.00 39 1015.1
20260503173533 12 314 14.5 25.7 0.00 0.00 0.00 38 1015.1
20260503173129 12 342 12.9 25.7 0.00 0.00 0.00 41 1015.1
20260503172529 12 296 11.3 22.5 0.00 0.00 0.00 40 1015.3
20260503172030 12 294 14.5 29.0 0.00 0.00 0.00 41 1015.3
20260503171547 12 274 11.3 29.0 0.00 0.00 0.00 46 1015.4
20260503171031 11 288 16.1 25.7 0.00 0.00 0.00 40 1015.4
20260503170530 11 289 14.5 27.4 0.00 0.00 0.00 48 1015.4
20260503150532 8 288 9.7 22.5 0.00 0.00 0.00 49 1016.6
20260503131034 6 280 9.7 24.1 0.00 0.00 0.00 62 1016.8
20260503130531 6 291 12.9 24.1 0.00 0.00 0.00 62 1016.8
20260503110530 2 283 6.4 11.3 0.00 0.00 0.00 75 1016.1
20260503081555 2 281 4.8 11.3 0.00 0.00 0.00 76 1014.6
20260503081031 2 266 4.8 11.3 0.00 0.00 0.00 76 1014.6
20260503080532 2 285 4.8 9.7 0.00 0.00 0.00 75 1014.6